Location: *
(28.3744°N, 81.5492°W)
Time: 04:18:34
(UTC+00:00)

Envisat - Pass Details

Date: 15 June 2025
Orbit: 761 x 763 km, 98.3° (Epoch: 11 July)

Event Time Altitude Azimuth Distance (km) Brightness Sun altitude
Rises 08:02:06 0° 14° (NNE) 3,224 7.2 -26.2°
Reaches altitude 10° 08:04:25 10° 16° (NNE) 2,295 6.3 -25.9°
Maximum altitude 08:09:28 76° 101° (ESE) 787 3.0 -25.1°
Enters shadow 08:10:13 63° 162° (SSE) 848 3.0 -25.0°
